Weather reports worldwide

Advertisment
Gourette, France (7775): temperature & dewpoint: 07.07.2020 06:00:00 - 13.07.2020 06:00:00 (CEST)Gourette, France (7775): wind speed & gusts: 07.07.2020 06:00:00 - 13.07.2020 06:00:00 (CEST)Gourette, France (7775): wind direction: 07.07.2020 06:00:00 - 13.07.2020 06:00:00 (CEST)Gourette, France (7775): reduced air pressure: 07.07.2020 06:00:00 - 13.07.2020 06:00:00 (CEST)Gourette, France (7775): visibility: 07.07.2020 06:00:00 - 13.07.2020 06:00:00 (CEST)Gourette, France (7775): precipitation: 07.07.2020 06:00:00 - 13.07.2020 06:00:00 (CEST)
Date & Time tt [°C] td [°C] ff [km/h] ff [kn] fx [km/h] fx [kn] dd ppp [hPa] vv [km] rr [mm]
13.07.2020 06:00:00 22,3 17,2 14 7 23 12 N 1016,8 - 0,0
13.07.2020 05:00:00 23,0 17,9 15 8 22 12 N 1016,7 15 0,0
13.07.2020 04:00:00 23,5 17,0 15 8 28 15 N 1017,0 - 0,0
13.07.2020 03:00:00 24,2 17,9 19 10 30 16 NNE 1016,9 - 0,0
13.07.2020 02:00:00 25,0 17,5 19 10 35 19 N 1016,9 - 0,0
13.07.2020 01:00:00 25,4 17,1 21 11 31 17 N 1016,9 - 0,0
13.07.2020 00:00:00 25,6 16,7 21 11 33 18 N 1017,1 - 0,0
12.07.2020 23:00:00 26,7 16,3 19 10 23 12 NNW 1016,8 - 0,0
12.07.2020 22:00:00 26,4 16,9 18 10 22 12 NW 1016,3 - 0,0
12.07.2020 21:00:00 26,2 17,6 14 7 27 15 N 1016,1 - 0,0
12.07.2020 20:00:00 28,1 19,3 19 10 38 21 N 1015,8 - 0,0
12.07.2020 19:00:00 28,8 20,0 24 13 34 18 N 1015,4 - 0,0
12.07.2020 18:00:00 30,5 18,9 22 12 30 16 N 1015,8 - 0,0
12.07.2020 17:00:00 32,0 20,3 17 9 24 13 NNE 1016,1 - 0,0
12.07.2020 16:00:00 32,6 19,1 15 8 28 15 NNE 1016,4 - 0,0
12.07.2020 15:00:00 32,9 20,4 20 11 30 16 NNE 1016,3 - 0,0
12.07.2020 14:00:00 32,3 20,5 21 11 32 17 NNE 1016,5 20 0,0
12.07.2020 13:00:00 31,5 20,8 24 13 31 17 NNE 1016,6 - 0,0
12.07.2020 12:00:00 30,5 18,9 22 12 29 15 NE 1016,4 - 0,0
12.07.2020 11:00:00 31,6 19,3 14 8 25 14 NNE 1016,3 20 0,0
12.07.2020 10:00:00 29,8 20,6 16 9 26 14 NNE 1016,1 - 0,0
12.07.2020 09:00:00 27,5 21,1 18 10 27 15 N 1016,0 - 0,0
12.07.2020 08:00:00 24,1 19,0 13 7 23 12 N 1015,7 - 0,0
12.07.2020 07:00:00 22,6 18,6 16 9 22 12 NNW 1015,5 - 0,0
12.07.2020 06:00:00 22,2 18,6 19 10 26 14 N 1015,1 - 0,0
12.07.2020 05:00:00 22,4 18,8 19 10 25 13 NNW 1014,5 - 0,0
12.07.2020 04:00:00 22,5 17,8 15 8 21 11 N 1014,6 - 0,0
12.07.2020 03:00:00 22,5 17,4 15 8 19 11 NNW 1014,7 - 0,0
12.07.2020 02:00:00 22,7 18,9 16 9 24 13 NNW 1014,9 - 0,0
12.07.2020 01:00:00 23,4 19,5 18 10 26 14 N 1015,1 - 0,0
12.07.2020 00:00:00 23,4 20,3 18 10 22 12 NNW 1015,0 - 0,0
11.07.2020 23:00:00 23,4 21,1 15 8 18 10 N 1015,0 - 0,0
11.07.2020 22:00:00 24,4 20,9 2 1 4 2 NNE 1014,6 - 0,0
11.07.2020 21:00:00 25,0 20,9 3 2 10 5 ESE 1014,0 - 0,0
11.07.2020 20:00:00 26,3 21,3 6 3 13 7 SE 1013,7 - 0,0
11.07.2020 19:00:00 27,5 21,5 8 4 15 8 ESE 1013,7 - 0,0
11.07.2020 18:00:00 28,1 21,9 7 4 18 10 E 1013,9 - 0,0
11.07.2020 17:00:00 27,6 21,6 8 4 22 12 E 1014,3 - 0,0
11.07.2020 16:00:00 28,5 21,5 15 8 24 13 ENE 1014,2 - 0,0
11.07.2020 15:00:00 28,2 22,2 16 9 24 13 E 1014,3 - 0,0
11.07.2020 14:00:00 27,7 21,7 15 8 24 13 E 1014,7 20 0,0
11.07.2020 13:00:00 28,4 21,9 13 7 24 13 E 1014,9 - 0,0
11.07.2020 12:00:00 27,5 21,5 13 7 25 13 ENE 1015,0 - 0,0
11.07.2020 11:00:00 28,1 22,1 11 6 22 12 ESE 1014,5 20 0,0
11.07.2020 10:00:00 27,3 21,3 11 6 18 10 E 1014,5 - 0,0
11.07.2020 09:00:00 27,0 21,3 6 4 12 6 E 1014,7 - 0,0
11.07.2020 08:00:00 24,9 18,8 5 3 9 5 N 1014,7 15 0,0
11.07.2020 07:00:00 23,2 18,3 4 2 9 5 WSW 1014,4 - 0,0
11.07.2020 06:00:00 23,0 18,3 7 4 10 6 W 1014,3 - 0,0
11.07.2020 05:00:00 22,9 18,7 4 2 11 6 NW 1014,3 - 0,0
11.07.2020 04:00:00 22,8 18,3 9 5 15 8 NNW 1014,5 - 0,0
11.07.2020 03:00:00 23,0 18,7 8 4 12 7 N 1014,7 - 0,0
11.07.2020 02:00:00 23,1 18,8 10 6 23 12 N 1015,1 - 0,0
11.07.2020 01:00:00 23,4 18,7 16 9 21 11 N 1015,2 - 0,0
11.07.2020 00:00:00 24,2 18,4 6 3 11 6 WNW 1015,3 - 0,0
10.07.2020 23:00:00 23,6 19,3 9 5 13 7 SW 1015,0 - 0,0
10.07.2020 22:00:00 24,1 19,4 15 8 16 9 SSW 1014,7 - 0,0
10.07.2020 21:00:00 25,5 19,4 8 4 17 9 S 1014,5 - 0,0
10.07.2020 20:00:00 26,7 18,8 10 5 17 9 SSE 1014,4 - 0,0
10.07.2020 19:00:00 27,3 17,2 9 5 18 10 SE 1014,3 - 0,0
10.07.2020 18:00:00 28,4 19,1 9 5 19 11 ESE 1014,8 - 0,0
10.07.2020 17:00:00 27,4 19,5 9 5 19 11 E 1015,0 - 0,0
10.07.2020 16:00:00 28,7 19,1 11 6 21 11 E 1015,4 - 0,0
10.07.2020 15:00:00 28,7 19,6 13 7 23 12 E 1015,7 - 0,0
10.07.2020 14:00:00 29,3 19,3 11 6 22 12 E 1015,9 25 0,0
10.07.2020 13:00:00 28,6 19,8 13 7 21 11 E 1016,1 - 0,0
10.07.2020 12:00:00 28,3 19,8 11 6 19 10 E 1016,2 - 0,0
10.07.2020 11:00:00 28,2 19,7 10 6 20 11 E 1016,3 - 0,0
10.07.2020 10:00:00 27,8 19,3 8 4 15 8 E 1016,2 - 0,0
10.07.2020 09:00:00 27,3 19,6 6 3 14 7 E 1016,1 - 0,0
10.07.2020 08:00:00 24,3 18,5 4 2 11 6 N 1015,7 18 0,0
10.07.2020 07:00:00 23,0 15,8 9 5 13 7 NNW 1015,7 - 0,0
10.07.2020 06:00:00 22,4 16,4 11 6 16 9 NNW 1015,8 - 0,0
10.07.2020 05:00:00 22,1 16,1 12 6 16 9 NNW 1015,7 15 0,0
10.07.2020 04:00:00 22,3 15,9 13 7 22 12 N 1015,8 - 0,0
10.07.2020 03:00:00 22,5 15,8 15 8 23 13 N 1016,0 - 0,0
10.07.2020 02:00:00 22,1 15,4 4 2 8 5 ENE 1016,2 - 0,0
10.07.2020 01:00:00 23,4 16,2 5 3 15 8 NNE 1016,4 - 0,0
10.07.2020 00:00:00 22,3 16,6 11 6 16 9 SW 1016,5 - 0,0
09.07.2020 23:00:00 23,1 17,1 9 5 10 6 SW 1016,7 - 0,0
09.07.2020 22:00:00 24,2 17,4 2 1 4 2 SW 1016,6 - 0,0
09.07.2020 21:00:00 25,2 17,4 2 1 8 4 E 1016,5 - 0,0
09.07.2020 20:00:00 26,5 17,6 5 3 11 6 E 1016,4 - 0,0
09.07.2020 19:00:00 27,2 17,7 8 4 16 9 ENE 1016,3 - 0,0
09.07.2020 18:00:00 28,4 17,9 10 6 18 10 ENE 1016,5 - 0,0
09.07.2020 17:00:00 28,6 18,1 10 5 22 12 E 1017,0 - 0,0
09.07.2020 16:00:00 28,0 18,1 13 7 22 12 E 1017,2 - 0,0
09.07.2020 15:00:00 28,9 18,1 13 7 23 13 E 1017,4 - 0,0
09.07.2020 14:00:00 28,7 19,6 11 6 23 12 E 1017,5 - 0,0
09.07.2020 13:00:00 28,0 19,0 13 7 21 11 E 1017,5 - 0,0
09.07.2020 12:00:00 28,6 18,4 11 6 18 10 E 1017,5 - 0,0
09.07.2020 11:00:00 27,8 19,3 10 5 18 10 E 1017,4 - 0,0
09.07.2020 10:00:00 27,1 18,4 9 5 15 8 E 1017,1 - 0,0
09.07.2020 09:00:00 26,6 18,2 5 3 11 6 ESE 1017,1 - 0,0
09.07.2020 08:00:00 23,3 15,6 3 2 7 4 SSW 1017,3 18 0,0
09.07.2020 07:00:00 22,2 14,6 5 3 15 8 WNW 1016,9 - 0,0
09.07.2020 06:00:00 21,5 14,4 11 6 17 9 NNW 1016,7 - 0,0
09.07.2020 05:00:00 23,0 14,6 10 5 12 7 NNW 1016,5 18 0,0
09.07.2020 04:00:00 22,5 14,9 8 4 15 8 N 1016,4 - 0,0
09.07.2020 03:00:00 22,9 14,7 13 7 20 11 NNW 1016,6 - 0,0
09.07.2020 02:00:00 23,3 14,8 2 1 8 5 E 1016,6 - 0,0
09.07.2020 01:00:00 23,2 15,5 5 3 8 4 N 1016,6 - 0,0
09.07.2020 00:00:00 23,2 15,3 7 4 9 5 S 1016,5 - 0,0
08.07.2020 23:00:00 22,6 15,4 6 3 14 7 SW 1016,4 - 0,0
08.07.2020 22:00:00 23,4 16,2 8 4 9 5 N 1016,2 - 0,0
08.07.2020 21:00:00 24,6 16,6 8 4 10 5 N 1015,7 - 0,0
08.07.2020 20:00:00 26,7 18,0 5 3 8 5 ESE 1015,4 - 0,0
08.07.2020 19:00:00 27,2 17,1 5 3 15 8 E 1015,5 - 0,0
08.07.2020 18:00:00 28,3 16,6 8 4 19 10 E 1015,7 - 0,0
08.07.2020 17:00:00 28,9 15,1 10 6 20 11 ENE 1015,9 20 0,0
08.07.2020 16:00:00 28,5 17,7 11 6 22 12 ENE 1016,1 - 0,0
08.07.2020 15:00:00 28,0 16,3 14 8 31 17 ENE 1016,1 - 0,0
08.07.2020 14:00:00 31,2 16,4 18 10 30 16 NNE 1015,9 25 0,0
08.07.2020 13:00:00 31,1 13,8 24 13 35 19 NNE 1016,1 - 0,0
08.07.2020 12:00:00 29,9 16,7 24 13 38 21 NNE 1016,0 - 0,0
08.07.2020 11:00:00 29,0 15,2 24 13 35 19 NNE 1015,8 - 0,0
08.07.2020 10:00:00 28,7 18,8 18 10 31 17 NNE 1015,5 - 0,0
08.07.2020 09:00:00 26,6 17,9 17 9 23 12 NNE 1015,3 - 0,0
08.07.2020 08:00:00 23,8 17,5 13 7 24 13 N 1014,9 18 0,0
08.07.2020 07:00:00 22,6 17,1 16 9 26 14 NNW 1014,6 - 0,0
08.07.2020 06:00:00 22,2 16,5 18 10 31 17 NNW 1014,3 - 0,0
08.07.2020 05:00:00 22,7 16,5 21 11 31 17 NNW 1014,1 18 0,0
08.07.2020 04:00:00 22,7 16,3 18 10 26 14 N 1014,1 - 0,0
08.07.2020 03:00:00 22,9 16,2 15 8 23 12 N 1014,3 - 0,0
08.07.2020 02:00:00 22,9 16,0 18 10 26 14 N 1014,1 - 0,0
08.07.2020 01:00:00 24,7 15,6 18 10 28 15 N 1013,8 - 0,0
08.07.2020 00:00:00 25,2 15,5 22 12 29 16 NNW 1013,5 - 0,0
07.07.2020 23:00:00 25,5 15,8 21 11 29 16 NNW 1013,3 - 0,0
07.07.2020 22:00:00 25,6 15,6 21 11 29 16 N 1012,7 - 0,0
07.07.2020 21:00:00 25,7 16,3 17 9 34 18 N 1012,2 - 0,0
07.07.2020 20:00:00 27,7 18,4 22 12 33 18 N 1011,8 - 0,0
07.07.2020 19:00:00 29,1 18,2 26 14 - - N 1011,6 - 0,0
07.07.2020 18:00:00 29,5 19,2 29 16 - - NNE 1011,6 - 0,0
07.07.2020 17:00:00 30,9 20,2 26 14 43 23 NNE 1011,6 - 0,0
07.07.2020 16:00:00 31,3 20,3 29 16 44 24 N 1011,6 - 0,0
07.07.2020 15:00:00 32,3 20,5 31 17 46 25 NNE 1011,3 - 0,0
07.07.2020 14:00:00 32,4 19,3 27 15 49 27 N 1011,0 - 0,0
07.07.2020 13:00:00 31,5 20,1 37 20 54 29 NNE 1010,6 - 0,0
07.07.2020 12:00:00 31,7 18,7 35 19 47 26 NNE 1009,9 - 0,0
07.07.2020 11:00:00 30,1 17,5 22 12 38 21 N 1009,7 - 0,0
07.07.2020 10:00:00 28,6 21,1 22 12 31 17 N 1009,2 - 0,0
07.07.2020 09:00:00 27,6 20,2 13 7 20 11 NNE 1008,7 - 0,0
07.07.2020 08:00:00 24,4 18,8 11 6 16 9 NNW 1008,1 18 0,0
07.07.2020 07:00:00 22,8 19,0 13 7 16 9 NW 1007,7 - 0,0
07.07.2020 06:00:00 22,1 18,3 14 8 20 11 NNW 1007,4 - 0,0

tt = temperature
td = dewpoint
ff = wind speed
fx = gusts
dd = wind direction
ppp = reduced air pressure
vv = visibility
rr = precipitation

Next stations